STARLINK-36071, 66808

Orbit data source: Space-Track

STARLINK-36071, 66808 is a payload satellite owned by SpaceX/Seattle (US) in LEO that was launched on Mon, 01 Dec 2025 UTC via an FALCON 9 launch vehicle from the Air Force Eastern Test Range (AFETR). Payload-class satellites include a variety of spacecraft equipped with specific instruments for various scientific and technological missions. These include communications satellites like Starlink; space stations such as the ISS; scientific satellites like the Hubble; Earth observation satellites from companies like Planet Labs, Umbra, and HawkEye 360; GPS; miniature CubeSats for education and research; and military/defense satellites.

Loading next visibility...
Identifier
66808, 2025-278T
Orbit
LEO
Country
Flag of USUS
Related business
Manufacturer
SpaceX/Seattle
Mission
Operational Commercial Communications
Bus & Motor
STARLINK V2MO, Unknown motor
Mass
575 kg wet, ~530 kg dry
Launch date (UTC)
2025-12-01 (7 months ago)
Launch vehicle
FALCON 9
Launch site
Air Force Eastern Test Range (AFETR)
Object type
Payload
Rocket body
Debris
Shape & HBR
Box + 2 Pan, 17.7 m
Radar Cross Section
36.964 m², Large (>1 m²)

Expand to show TLE details & history
Last TLE update: 1 day ago

TLE from 1 day ago
0 STARLINK-36071
1 66808U 25278T   26170.69042438  .00012776  00000-0  47279-3 0  9999
2 66808  43.0009 257.9020 0001548 274.4632  85.6043 15.27594112 30812
Epoch: 2026-06-19T16:34Z
TLE epoch observation values (Epoch: 2026-06-19T16:34:12.666Z)
Latitude
-0°
Longitude
101.43344°
Altitude
482.701 km
Speed
7.626 km/s
True Right ascension
17h 11m 36s
True Declination
0° 00' 00"
Sunlit
Object was in full shadow at epoch
Visualization orbit readout
Latitude
Unknown
Longitude
Unknown
Altitude
Unknown
Speed
Unknown
Apparent Right ascension
Unknown
Apparent Declination
Unknown
Sunlit
N/A
Visualization observer readout
Local Sidereal Time
08:33:42
Azimuth
Unknown
Elevation
Unknown
Doppler factor
Unknown
Orbital elements
Apogee altitude
486.014 km
Perigee altitude
483.889 km
Semi-major axis
6,863.089 km
Eccentricity
0.00015
Inclination
43.0009°
RAAN
257.902°
Arg. of periapsis
274.4632°
True anomaly
85.62199°
Mean anomaly
85.6043°
Eccentric anomaly
85.61314°
Mean motion
3.81737 °/min
Orbital period
94.31 mins
BSTAR
0.00047279
Loading maneuver chart data...
Computing Atmospheric mass density...
Loading historical data...
Loading historical data...
Loading historical data...
Loading historical data...
Loading historical data...
Loading historical data...
Loading historical data...

Documentation

Showing up to 5 results
|